Weather in Saint Paul

United States     44°56′34″N   93°06′06″W
temp.,
°C
wind,
m/s
gust,
m/s
humid.,
%
clouds,
%
prec.,
mm/h
press.,
hPa
HPBL,
m
7 may, fri
fri701:00+6n49861 2.6 1019583
04:00+4nw37890 0.0 1019268
07:00+3nnw38853 0.0 1021333
10:00+7nnw46525 0.0 10211172
13:00+11nnw573686 0.0 10202124
16:00+12n463392 0.0 10192345
19:00+11nnw343860 0.0 10181488
22:00+7e11545 0.0 101921
8 may, sat
sat801:00+6s23591 0.0 102066
04:00+4se22655 0.0 102040
07:00+5se236063 0.0 1020122
10:00+10sse3447100 0.0 1018782
13:00+10sse4548100 0.0 10171411
16:00+10sse4560100 0.3 10161179
19:00+6se2488100 3.1 1017419
22:00+5se2491100 0.6 1016291
9 may, sun
sun901:00+5ne2394100 0.9 1016149
04:00+4nne2595100 0.0 1016164
07:00+4nne2692100 0.0 1016188
10:00+8n4571100 0.0 1016695
13:00+12nne454692 0.1 10151839
16:00+13nne5536100 0.0 10152259
19:00+11ne4746100 0.0 10181412
22:00+7ene2658100 0.0 1021196
10 may, mon
mon1001:00+4ene385990 0.0 1023262
04:00+2ene2562100 0.0 1024161
07:00+3e235772 0.0 1026169
10:00+8ne22425 0.0 1026954
13:00+12nnw2434100 0.0 10262377
16:00+13nnw443299 0.0 10252409
19:00+12nnw343816 0.0 10251519
22:00+8nw11474 0.0 102711
11 may, tue
tue1101:00+7wsw23540 0.0 102751
04:00+6wnw22570 0.0 102845
07:00+6nnw12580 0.0 102961
10:00+13w23380 0.0 1030829
13:00+17w22304 0.0 10281983
16:00+18wsw233093 0.0 10262416
19:00+16sw2342100 0.0 1025892
22:00+13ssw2450100 0.0 1027147